Tracking 27380 objects as of 6-Jun-2023
HD Live streaming from Space Station
objects crossing your sky now

STARLINK-4303

Track STARLINK-4303 now!
10-day predictions
STARLINK-4303 is classified as:


NORAD ID: 53544
Int'l Code: 2022-101T
Perigee: 546.3 km
Apogee: 547.4 km
Inclination: 53.2 °
Period: 95.4 minutes
Semi major axis: 6917 km
RCS: Unknown
Launch date: August 19, 2022
Source: United States (US)
Launch site: AIR FORCE EASTERN TEST RANGE (AFETR)
Your satellite tracking list
Your tracking list is empty




NASA's NSSDC Master Catalog

Two Line Element Set (TLE):
1 53544U 22101T   23156.58081243  .00001489  00000-0  11159-3 0  9997
2 53544  53.2163 269.6984 0000841  92.7044 267.4045 15.08845093 44117
Source of the keplerian elements: AFSPC